KB1GNF Weather Reports


Display with metric or nautical units.
time (UTC)temp
F
wind
direction
speed
MPH
gust
MPH
rain 1hr
in
rain 24hr
in
rain mn
in
humidity
%
barometer
mb
20260831235502 70 191 1.0 3.0 0.00 0.00 0.00 79 1018.1
20260831235004 70 213 1.0 3.0 0.00 0.00 0.00 80 1018.1
20260831234506 70 211 1.0 3.0 0.00 0.00 0.00 80 1018.2
20260831234003 70 205 0.0 2.0 0.00 0.00 0.00 81 1018.2
20260831233504 70 219 1.0 2.0 0.00 0.00 0.00 81 1018.2
20260831233005 70 229 0.0 0.0 0.00 0.00 0.00 81 1018.3
20260831232502 70 217 0.0 0.0 0.00 0.00 0.00 81 1018.3
20260831232003 70 224 0.0 0.0 0.00 0.00 0.00 81 1018.4
20260831231503 70 243 0.0 0.0 0.00 0.00 0.00 80 1018.5
20260831231004 70 214 0.0 0.0 0.00 0.00 0.00 81 1018.5
20260831230504 71 214 0.0 0.0 0.00 0.00 0.00 80 1018.6
20260831230006 71 214 0.0 0.0 0.00 0.00 0.00 80 1018.6
20260831225502 72 184 0.0 0.0 0.00 0.00 0.00 79 1018.7
20260831225002 72 176 0.0 0.0 0.00 0.00 0.00 80 1018.7
20260831224504 72 162 0.0 0.0 0.00 0.00 0.00 79 1018.7
20260831224004 72 162 0.0 0.0 0.00 0.00 0.00 78 1018.7
20260831223504 73 162 0.0 0.0 0.00 0.00 0.00 78 1018.7
20260831223006 73 162 0.0 0.0 0.00 0.00 0.00 76 1018.7
20260831222504 73 162 0.0 0.0 0.00 0.00 0.00 76 1018.7
20260831222003 73 182 0.0 0.0 0.00 0.00 0.00 76 1018.7
20260831221503 73 182 0.0 0.0 0.00 0.00 0.00 75 1018.7
20260831221003 73 182 0.0 0.0 0.00 0.00 0.00 74 1018.7
20260831220503 73 182 0.0 0.0 0.00 0.00 0.00 73 1018.6
20260831220007 73 182 0.0 0.0 0.00 0.00 0.00 73 1018.6
20260831215504 74 148 0.0 0.0 0.00 0.00 0.00 72 1018.6
20260831215005 74 208 0.0 0.0 0.00 0.00 0.00 72 1018.5
20260831214504 74 208 0.0 0.0 0.00 0.00 0.00 72 1018.4
20260831214004 74 208 0.0 1.0 0.00 0.00 0.00 71 1018.5
20260831213503 74 193 0.0 1.0 0.00 0.00 0.00 70 1018.5
20260831213004 74 214 0.0 2.0 0.00 0.00 0.00 71 1018.5
20260831212506 74 244 0.0 6.0 0.00 0.00 0.00 70 1018.4
20260831212004 74 205 2.0 6.0 0.00 0.00 0.00 70 1018.3
20260831211507 75 219 2.0 4.0 0.00 0.00 0.00 71 1018.2
20260831211004 75 179 1.0 7.0 0.00 0.00 0.00 71 1018.3
20260831210502 75 217 3.0 7.0 0.00 0.00 0.00 70 1018.3
20260831210006 75 210 2.0 6.0 0.00 0.00 0.00 70 1018.4
20260831205502 75 198 3.0 6.0 0.00 0.00 0.00 69 1018.4
20260831205002 75 135 2.0 7.0 0.00 0.00 0.00 69 1018.3
20260831204509 76 225 2.0 7.0 0.00 0.00 0.00 68 1018.4
20260831204006 76 211 2.0 6.0 0.00 0.00 0.00 67 1018.5
20260831203503 76 223 3.0 6.0 0.00 0.00 0.00 67 1018.5
20260831203007 76 248 2.0 7.0 0.00 0.00 0.00 68 1018.4
20260831202503 76 203 5.0 7.0 0.00 0.00 0.00 65 1018.5
20260831202003 76 187 2.0 8.0 0.00 0.00 0.00 65 1018.5
20260831201509 76 183 3.0 8.0 0.00 0.00 0.00 66 1018.5
20260831201007 76 221 5.0 9.0 0.00 0.00 0.00 65 1018.5
20260831200504 77 205 5.0 9.0 0.00 0.00 0.00 64 1018.6
20260831200020 77 200 2.0 8.0 0.00 0.00 0.00 65 1018.6
20260831195504 77 218 3.0 12.0 0.00 0.00 0.00 64 1018.7
20260831195003 77 240 5.0 12.0 0.00 0.00 0.00 63 1018.8
20260831194508 77 233 3.0 7.0 0.00 0.00 0.00 63 1018.9
20260831194004 77 228 2.0 7.0 0.00 0.00 0.00 65 1018.9
20260831193506 77 255 2.0 5.0 0.00 0.00 0.00 62 1018.9
20260831193010 77 198 2.0 5.0 0.00 0.00 0.00 63 1018.9
20260831192504 77 207 1.0 5.0 0.00 0.00 0.00 62 1018.9
20260831192004 77 165 3.0 5.0 0.00 0.00 0.00 61 1018.9
20260831191509 77 214 3.0 6.0 0.00 0.00 0.00 62 1018.9
20260831191008 77 170 3.0 7.0 0.00 0.00 0.00 62 1019.0
20260831190504 77 176 2.0 7.0 0.00 0.00 0.00 61 1019.2
20260831190009 77 141 3.0 7.0 0.00 0.00 0.00 61 1019.3
20260831185504 77 231 4.0 5.0 0.00 0.00 0.00 60 1019.3
20260831185003 78 179 3.0 5.0 0.00 0.00 0.00 60 1019.5
20260831184510 77 162 2.0 6.0 0.00 0.00 0.00 61 1019.5
20260831184006 77 247 2.0 8.0 0.00 0.00 0.00 58 1019.4
20260831183506 77 215 4.0 8.0 0.00 0.00 0.00 58 1019.4
20260831183012 78 162 2.0 9.0 0.00 0.00 0.00 59 1019.5
20260831182504 78 198 4.0 9.0 0.00 0.00 0.00 57 1019.5
20260831182004 78 213 5.0 9.0 0.00 0.00 0.00 59 1019.5
20260831181512 78 243 2.0 7.0 0.00 0.00 0.00 61 1019.7
20260831181004 77 170 2.0 7.0 0.00 0.00 0.00 60 1019.6
20260831180503 78 226 3.0 7.0 0.00 0.00 0.00 59 1019.5
20260831180015 78 243 3.0 7.0 0.00 0.00 0.00 60 1019.5
20260831175503 78 188 2.0 6.0 0.00 0.00 0.00 60 1019.6
20260831175007 78 84 1.0 5.0 0.00 0.00 0.00 61 1019.7
20260831174521 77 155 2.0 5.0 0.00 0.00 0.00 61 1019.8
20260831174007 77 229 3.0 5.0 0.00 0.00 0.00 61 1020.0
20260831173503 77 208 2.0 4.0 0.00 0.00 0.00 59 1020.0
20260831173012 77 89 3.0 5.0 0.00 0.00 0.00 57 1020.0
20260831172507 77 101 2.0 5.0 0.00 0.00 0.00 57 1020.1
20260831172010 77 176 1.0 8.0 0.00 0.00 0.00 60 1020.1
20260831171517 76 288 1.0 8.0 0.00 0.00 0.00 61 1020.1
20260831171010 77 226 3.0 6.0 0.00 0.00 0.00 61 1020.1
20260831170505 77 90 0.0 5.0 0.00 0.00 0.00 62 1020.2
20260831170014 76 174 3.0 7.0 0.00 0.00 0.00 59 1020.2
20260831165508 77 135 4.0 7.0 0.00 0.00 0.00 59 1020.3
20260831165006 77 203 2.0 7.0 0.00 0.00 0.00 58 1020.4
20260831164514 77 119 1.0 4.0 0.00 0.00 0.00 57 1020.4
20260831164008 76 143 0.0 6.0 0.00 0.00 0.00 57 1020.4
20260831163508 77 153 3.0 6.0 0.00 0.00 0.00 56 1020.4
20260831163010 77 177 1.0 5.0 0.00 0.00 0.00 57 1020.5
20260831162508 77 236 3.0 5.0 0.00 0.00 0.00 54 1020.7
20260831162005 77 196 3.0 5.0 0.00 0.00 0.00 58 1020.7
20260831161523 78 224 2.0 5.0 0.00 0.00 0.00 57 1020.8
20260831161012 78 169 0.0 4.0 0.00 0.00 0.00 60 1020.7
20260831160506 78 266 0.0 2.0 0.00 0.00 0.00 60 1020.7
20260831160020 76 241 0.0 3.0 0.00 0.00 0.00 60 1020.8
20260831155502 76 229 1.0 4.0 0.00 0.00 0.00 60 1020.8
20260831155004 76 236 2.0 5.0 0.00 0.00 0.00 61 1020.9
20260831154519 76 196 2.0 6.0 0.00 0.00 0.00 62 1020.9
20260831154004 75 225 2.0 6.0 0.00 0.00 0.00 62 1020.9
20260831153503 76 225 1.0 3.0 0.00 0.00 0.00 64 1020.9
20260831153011 76 354 0.0 3.0 0.00 0.00 0.00 67 1020.8
20260831152503 75 262 0.0 3.0 0.00 0.00 0.00 67 1021.0
20260831152006 73 101 1.0 6.0 0.00 0.00 0.00 65 1020.9
20260831151512 73 54 1.0 6.0 0.00 0.00 0.00 68 1020.8
20260831151007 74 96 4.0 6.0 0.00 0.00 0.00 69 1020.9
20260831150508 76 136 2.0 5.0 0.00 0.00 0.00 67 1020.9
20260831150020 76 216 1.0 4.0 0.00 0.00 0.00 67 1021.0
20260831145502 75 241 1.0 5.0 0.00 0.00 0.00 68 1020.9
20260831145002 75 179 2.0 5.0 0.00 0.00 0.00 67 1021.0
20260831144504 75 217 0.0 2.0 0.00 0.00 0.00 69 1021.1
20260831144004 73 3 0.0 2.0 0.00 0.00 0.00 70 1021.0
20260831143504 73 144 1.0 3.0 0.00 0.00 0.00 70 1021.3
20260831143013 73 345 0.0 4.0 0.00 0.00 0.00 71 1021.1
20260831142508 72 59 1.0 4.0 0.00 0.00 0.00 74 1021.1
20260831142005 72 84 2.0 4.0 0.00 0.00 0.00 72 1021.0
20260831141529 71 75 1.0 3.0 0.00 0.00 0.00 72 1021.0
20260831141007 71 75 1.0 2.0 0.00 0.00 0.00 74 1021.1
20260831140506 70 312 0.0 2.0 0.00 0.00 0.00 76 1021.3
20260831140035 69 18 0.0 2.0 0.00 0.00 0.00 79 1021.4
20260831135509 69 100 1.0 2.0 0.00 0.00 0.00 79 1021.4
20260831135008 68 110 0.0 3.0 0.00 0.00 0.00 82 1021.4
20260831134531 68 77 0.0 3.0 0.00 0.00 0.00 82 1021.4
20260831134012 68 72 1.0 3.0 0.00 0.00 0.00 84 1021.3
20260831133504 67 155 0.0 3.0 0.00 0.00 0.00 88 1021.3
20260831133007 66 64 0.0 3.0 0.00 0.00 0.00 90 1021.1
20260831132505 65 27 0.0 1.0 0.00 0.00 0.00 92 1021.1
20260831132005 64 93 0.0 0.0 0.00 0.00 0.00 95 1021.1
20260831131511 64 65 0.0 0.0 0.00 0.00 0.00 97 1021.2
20260831131005 63 203 0.0 0.0 0.00 0.00 0.00 97 1021.2
20260831130506 62 141 0.0 0.0 0.00 0.00 0.00 97 1021.1
20260831130012 61 123 0.0 1.0 0.00 0.00 0.00 97 1021.1
20260831125511 61 84 0.0 2.0 0.00 0.00 0.00 97 1021.1
20260831125008 61 146 1.0 2.0 0.00 0.00 0.00 97 1021.2
20260831124520 61 9 0.0 0.0 0.00 0.00 0.00 97 1021.2
20260831124010 61 94 0.0 0.0 0.00 0.00 0.00 97 1021.3
20260831123510 60 94 0.0 0.0 0.00 0.00 0.00 97 1021.3
20260831123026 60 94 0.0 1.0 0.00 0.00 0.00 97 1021.3
20260831122515 59 89 0.0 2.0 0.00 0.00 0.00 97 1021.3
20260831122003 59 103 1.0 2.0 0.00 0.00 0.00 97 1021.2
20260831121506 59 102 0.0 3.0 0.00 0.00 0.00 97 1021.3
20260831121002 59 86 0.0 3.0 0.00 0.00 0.00 97 1021.1
20260831120502 59 98 0.0 3.0 0.00 0.00 0.00 97 1021.1
20260831120013 59 115 0.0 1.0 0.00 0.00 0.00 97 1020.9
20260831115508 59 85 0.0 1.0 0.00 0.00 0.00 97 1020.9
20260831115006 59 162 0.0 0.0 0.00 0.00 0.00 97 1020.9
20260831114522 59 199 0.0 1.0 0.00 0.00 0.00 97 1020.9
20260831114009 59 199 0.0 1.0 0.00 0.00 0.00 97 1020.9
20260831113509 58 153 0.0 1.0 0.00 0.00 0.00 97 1020.8
20260831113024 58 159 0.0 0.0 0.00 0.00 0.00 97 1020.7
20260831112510 58 217 0.0 0.0 0.00 0.00 0.00 97 1020.6
20260831112012 58 216 0.0 0.0 0.00 0.00 0.00 97 1020.6
20260831111525 57 216 0.0 1.0 0.00 0.00 0.00 97 1020.6
20260831111014 57 216 0.0 1.0 0.00 0.00 0.00 97 1020.6
20260831110504 57 2 0.0 0.0 0.00 0.00 0.00 97 1020.5
20260831110009 57 2 0.0 1.0 0.00 0.00 0.00 97 1020.4
20260831105506 57 2 0.0 1.0 0.00 0.00 0.00 97 1020.3
20260831105003 57 200 0.0 0.0 0.00 0.00 0.00 97 1020.3
20260831104512 57 200 0.0 0.0 0.00 0.00 0.00 97 1020.2
20260831104007 57 200 0.0 0.0 0.00 0.00 0.00 97 1020.1
20260831103506 57 200 0.0 0.0 0.00 0.00 0.00 97 1020.1
20260831103018 57 200 0.0 0.0 0.00 0.00 0.00 97 1020.1
20260831102510 57 200 0.0 0.0 0.00 0.00 0.00 97 1020.0
20260831102011 57 200 0.0 0.0 0.00 0.00 0.00 97 1019.9
20260831101531 57 200 0.0 0.0 0.00 0.00 0.00 97 1019.8
20260831101013 57 200 0.0 0.0 0.00 0.00 0.00 97 1019.9
20260831100514 57 200 0.0 1.0 0.00 0.00 0.00 97 1020.1
20260831100031 56 200 0.0 1.0 0.00 0.00 0.00 96 1020.1
20260831095516 56 200 0.0 1.0 0.00 0.00 0.00 96 1020.1
20260831095015 56 160 0.0 0.0 0.00 0.00 0.00 96 1020.0
20260831094508 57 152 0.0 0.0 0.00 0.00 0.00 96 1020.0
20260831094007 57 152 0.0 0.0 0.00 0.00 0.00 97 1020.0
20260831093507 57 152 0.0 0.0 0.00 0.00 0.00 96 1020.0
20260831093017 56 152 0.0 0.0 0.00 0.00 0.00 96 1019.9
20260831092508 56 80 0.0 0.0 0.00 0.00 0.00 96 1019.8
20260831092012 57 79 0.0 0.0 0.00 0.00 0.00 96 1019.7
20260831091525 57 79 0.0 0.0 0.00 0.00 0.00 96 1019.7
20260831091016 57 79 0.0 0.0 0.00 0.00 0.00 96 1019.6
20260831090513 57 79 0.0 0.0 0.00 0.00 0.00 96 1019.5
20260831090030 57 79 0.0 0.0 0.00 0.00 0.00 96 1019.6
20260831085513 57 79 0.0 1.0 0.00 0.00 0.00 96 1019.6
20260831085016 57 80 0.0 1.0 0.00 0.00 0.00 96 1019.6
20260831084530 57 82 0.0 0.0 0.00 0.00 0.00 96 1019.6
20260831084013 57 82 0.0 0.0 0.00 0.00 0.00 95 1019.6
20260831083517 57 82 0.0 0.0 0.00 0.00 0.00 96 1019.5
20260831083011 57 82 0.0 0.0 0.00 0.00 0.00 96 1019.5
20260831082507 58 82 0.0 0.0 0.00 0.00 0.00 96 1019.4
20260831082007 58 82 0.0 0.0 0.00 0.00 0.00 96 1019.4
20260831081516 58 82 0.0 0.0 0.00 0.00 0.00 96 1019.4
20260831081010 58 82 0.0 0.0 0.00 0.00 0.00 96 1019.4
20260831080509 58 82 0.0 0.0 0.00 0.00 0.00 96 1019.3
20260831080024 58 82 0.0 0.0 0.00 0.00 0.00 95 1019.3
20260831075512 58 82 0.0 0.0 0.00 0.00 0.00 95 1019.2
20260831075014 58 82 0.0 1.0 0.00 0.00 0.00 95 1019.0
20260831074531 58 82 0.0 1.0 0.00 0.00 0.00 95 1019.2
20260831074014 58 82 1.0 1.0 0.00 0.00 0.00 95 1019.2
20260831073521 58 300 0.0 1.0 0.00 0.00 0.00 95 1019.1
20260831073033 58 311 0.0 1.0 0.00 0.00 0.00 95 1019.1
20260831072515 58 266 0.0 1.0 0.00 0.00 0.00 95 1019.0
20260831072023 58 266 0.0 0.0 0.00 0.00 0.00 95 1019.0
20260831071533 58 266 0.0 0.0 0.00 0.00 0.00 95 1018.9
20260831071008 58 266 0.0 0.0 0.00 0.00 0.00 94 1018.9
20260831070508 58 266 0.0 0.0 0.00 0.00 0.00 95 1018.8
20260831070030 59 266 0.0 0.0 0.00 0.00 0.00 95 1018.8
20260831065513 59 266 0.0 0.0 0.00 0.00 0.00 95 1018.7
20260831065018 58 266 0.0 0.0 0.00 0.00 0.00 94 1018.7
20260831064528 58 266 0.0 0.0 0.00 0.00 0.00 94 1018.7
20260831064015 59 266 0.0 0.0 0.00 0.00 0.00 94 1018.6
20260831063513 59 266 0.0 0.0 0.00 0.00 0.00 94 1018.6
20260831063032 59 266 0.0 0.0 0.00 0.00 0.00 93 1018.6
20260831062514 59 266 0.0 0.0 0.00 0.00 0.00 93 1018.6
20260831062017 59 266 0.0 0.0 0.00 0.00 0.00 93 1018.8
20260831061540 59 266 0.0 1.0 0.00 0.00 0.00 93 1018.8
20260831061016 59 266 0.0 1.0 0.00 0.00 0.00 93 1018.8
20260831060517 59 266 0.0 1.0 0.00 0.00 0.00 93 1018.8
20260831060037 59 266 0.0 1.0 0.00 0.00 0.00 93 1018.7
20260831055508 59 266 0.0 0.0 0.00 0.00 0.00 92 1018.8
20260831055008 59 266 0.0 0.0 0.00 0.00 0.00 92 1018.7
20260831054528 60 266 0.0 0.0 0.00 0.00 0.00 92 1018.7
20260831054010 60 266 0.0 0.0 0.00 0.00 0.00 92 1018.7
20260831053504 60 266 0.0 0.0 0.00 0.00 0.00 92 1018.6
20260831053005 60 266 0.0 0.0 0.00 0.00 0.00 91 1018.6
20260831052504 60 266 0.0 1.0 0.00 0.00 0.00 91 1018.5
20260831052004 60 266 0.0 1.0 0.00 0.00 0.00 91 1018.6
20260831051521 61 265 0.0 1.0 0.00 0.00 0.00 91 1018.5
20260831051004 61 265 0.0 1.0 0.00 0.00 0.00 90 1018.5
20260831050504 61 262 0.0 1.0 0.00 0.00 0.00 90 1018.5
20260831050015 61 262 0.0 1.0 0.00 0.00 0.00 90 1018.4
20260831045506 61 6 0.0 0.0 0.00 0.00 0.00 89 1018.5
20260831045009 62 6 0.0 1.0 0.00 0.00 0.00 89 1018.6
20260831044525 62 6 0.0 1.0 0.00 0.00 0.00 89 1018.5
20260831044009 62 7 0.0 0.0 0.00 0.00 0.00 89 1018.5
20260831043511 62 6 0.0 0.0 0.00 0.00 0.00 89 1018.3
20260831043028 63 6 0.0 0.0 0.00 0.00 0.00 88 1018.3
20260831042514 63 6 0.0 0.0 0.00 0.00 0.00 88 1018.2
20260831042003 63 6 0.0 0.0 0.00 0.00 0.00 87 1018.2
20260831041509 63 7 0.0 0.0 0.00 0.00 0.00 87 1018.2
20260831041004 64 6 0.0 0.0 0.00 0.00 0.00 86 1018.2
20260831040504 64 6 0.0 0.0 0.00 0.00 0.00 85 1018.1
20260831040011 64 6 0.0 0.0 0.00 0.00 0.00 85 1018.1
20260831035505 65 6 0.0 1.0 0.00 0.00 0.00 85 1018.0
20260831035006 65 6 0.0 1.0 0.00 0.00 0.00 84 1018.1
20260831034516 65 6 1.0 1.0 0.00 0.00 0.00 83 1018.1
20260831034008 66 252 0.0 1.0 0.00 0.00 0.00 82 1018.2
20260831033508 66 251 0.0 1.0 0.00 0.00 0.00 81 1018.2
20260831033033 66 252 0.0 1.0 0.00 0.00 0.00 82 1018.0
20260831032512 66 252 0.0 0.0 0.00 0.00 0.00 82 1018.0
20260831032012 67 252 0.0 2.0 0.00 0.00 0.00 81 1018.1
20260831031539 67 252 0.0 2.0 0.00 0.00 0.00 81 1018.1
20260831031011 67 250 1.0 2.0 0.00 0.00 0.00 80 1018.2
20260831030509 68 40 0.0 1.0 0.00 0.00 0.00 79 1018.3
20260831030009 68 40 0.0 1.0 0.00 0.00 0.00 79 1018.2
20260831025503 68 221 0.0 1.0 0.00 0.00 0.00 78 1018.1
20260831025004 68 222 0.0 1.0 0.00 0.00 0.00 78 1018.1
20260831024521 69 203 0.0 2.0 0.00 0.00 0.00 78 1018.2
20260831024008 69 192 0.0 2.0 0.00 0.00 0.00 77 1018.1
20260831023505 70 241 1.0 3.0 0.00 0.00 0.00 76 1018.1
20260831023021 70 215 0.0 3.0 0.00 0.00 0.00 76 1018.1
20260831022509 70 203 1.0 2.0 0.00 0.00 0.00 75 1018.0
20260831022009 70 352 0.0 3.0 0.00 0.00 0.00 75 1018.1
20260831021523 70 352 1.0 3.0 0.00 0.00 0.00 75 1018.1
20260831021013 70 176 0.0 1.0 0.00 0.00 0.00 75 1018.1
20260831020512 70 307 0.0 3.0 0.00 0.00 0.00 74 1018.1
20260831020030 70 324 1.0 3.0 0.00 0.00 0.00 75 1018.1
20260831015518 70 75 0.0 3.0 0.00 0.00 0.00 75 1018.2
20260831015016 70 217 1.0 4.0 0.00 0.00 0.00 75 1018.0
20260831014510 70 253 0.0 4.0 0.00 0.00 0.00 75 1018.0
20260831014004 70 145 2.0 4.0 0.00 0.00 0.00 75 1018.0
20260831013504 70 259 1.0 3.0 0.00 0.00 0.00 75 1017.9
20260831013015 70 230 0.0 3.0 0.00 0.00 0.00 75 1018.0
20260831012508 70 281 1.0 4.0 0.00 0.00 0.00 75 1017.9
20260831012007 69 240 1.0 4.0 0.00 0.00 0.00 77 1018.0
20260831011527 69 229 0.0 2.0 0.00 0.00 0.00 79 1017.9
20260831011010 70 2 0.0 2.0 0.00 0.00 0.00 79 1018.0
20260831010511 70 239 0.0 1.0 0.00 0.00 0.00 77 1018.0
20260831010030 71 240 0.0 1.0 0.00 0.00 0.00 77 1018.0
20260831005513 71 239 0.0 1.0 0.00 0.00 0.00 74 1017.9
20260831005015 71 239 0.0 1.0 0.00 0.00 0.00 73 1017.9
20260831004530 71 241 0.0 1.0 0.00 0.00 0.00 73 1017.7
20260831004019 71 236 0.0 2.0 0.00 0.00 0.00 72 1017.6
20260831003517 71 326 0.0 3.0 0.00 0.00 0.00 72 1017.6
20260831003014 71 307 0.0 3.0 0.00 0.00 0.00 72 1017.5
20260831002504 71 357 0.0 2.0 0.00 0.00 0.00 73 1017.5
20260831002008 71 330 1.0 2.0 0.00 0.00 0.00 75 1017.4
20260831001520 72 302 0.0 1.0 0.00 0.00 0.00 75 1017.2
20260831001010 72 236 0.0 1.0 0.00 0.00 0.00 74 1017.1
20260831000510 72 253 0.0 4.0 0.00 0.00 0.00 76 1017.0
20260831000025 72 238 1.0 4.0 0.00 0.00 0.00 74 1016.8